SAUDISAT 1A 1 26545U 00057A 09182.80823733 -.00000148 00000-0 56593-6 0 2911 2 26545 64.5570 72.5178 0057385 276.1477 83.3090 14.80592122473363 UNISAT 1 26547U 00057C 09183.69852883 -.00000117 00000-0 46666-5 0 3140 2 26547 64.5553 54.7447 0061894 280.2500 79.1667 14.82375326473810 SAUDISAT 1B 1 26549U 00057E 09184.33667181 -.00000084 00000-0 86916-5 0 3694 2 26549 64.5577 84.5422 0061126 279.6173 79.8060 14.79448478473255 MOZHAYETS 1 27560U 02054B 09184.36212156 .00000072 00000-0 26486-4 0 9864 2 27560 97.9349 26.3649 0043243 159.5641 200.7285 14.55031407349101 SAUDISAT 1C 1 27607U 02058C 09183.95564477 -.00000060 00000-0 12714-4 0 9249 2 27607 64.5595 337.1976 0065327 202.0518 157.7765 14.71444475350990 UNISAT 2 1 27608U 02058D 09184.04812053 -.00000090 00000-0 77093-5 0 9365 2 27608 64.5590 302.1401 0046735 201.0899 158.8271 14.74420796351734 SAUDISAT 2 1 28371U 04025F 09184.46088779 -.00000018 00000-0 60621-5 0 6686 2 28371 98.0198 229.0067 0026366 359.8815 0.2371 14.52929601265731 UNISAT 3 1 28373U 04025H 09182.69540736 -.00000044 00000-0 -52609-6 0 4122 2 28373 98.0375 198.9699 0072302 60.7203 300.1176 14.43327750264231 SSETI EXPRESS (XO-53) 1 28894U 05043E 09184.38191029 .00000015 00000-0 12630-4 0 5020 2 28894 98.0553 74.2443 0016793 302.2150 57.7419 14.59673998196219 SAUDISAT 3 1 31118U 07012B 09184.44840788 .00000004 00000-0 91171-5 0 4745 2 31118 98.0107 257.6476 0015419 177.8953 182.2320 14.68017611118562